{"data":{"norad_id":62814,"epoch":"2026-09-21T22:13:40.776960Z","epoch_age_seconds":44995,"freshness":"FRESH","line1":"1 62814U 25018J   26264.92616640  .00008583  00000+0  28795-3 0  9998","line2":"2 62814  53.1587 116.6418 0001215 110.9443 249.1688 15.31710108 93232","mean_motion":15.31710108,"eccentricity":0.0001215,"inclination_deg":53.1587,"raan_deg":116.6418,"arg_perigee_deg":110.9443,"mean_anomaly_deg":249.1688,"bstar":0.00028795,"rev_number":9323,"period_min":94.012567553024,"perigee_km":469.87772907535,"apogee_km":471.5419988633,"semimajor_km":6848.8468639693,"source":"CELESTRAK","updated_at":"2026-09-22T09:00:49.668157Z"}}